This demonstration page uses our WeatherBlox Daily Observations layout. Learn more.

Left ArrowRight Arrow

Hourly Observations for April 10, 2017

Temp ( °F °C ) Dew Point ( °F °C ) Humidity (%) Winds ( mph kmh ) Pressure ( in mb ) Visibility ( mi km ) Precip ( " mm )
12:53 am 00:53 Cloudy 37 2.8 35 1.7 93 93 E 5 7 30.14 1021 10 16 0.01 0.25
1:17 am 01:17 Mostly Cloudy 36 2.2 35 1.7 97 97 E 5 7 30.15 1021 10 16 0.00 0.00
1:53 am 01:53 Mostly Cloudy 36 2.2 35 1.7 97 97 Calm 30.13 1020 10 16 0.00 0.00
2:30 am 02:30 Cloudy 36 2 36 2 100 100 NE 5 7 30.15 1021 10 16 0.00 0.00
2:53 am 02:53 Cloudy 36 2.2 36 2.2 100 100 Calm 30.13 1020 10 16 0.00 0.00
3:53 am 03:53 Cloudy 37 2.8 36 2.2 96 96 ENE 3 6 30.12 1020 10 16 0.00 0.00
4:30 am 04:30 Partly Cloudy 34 1 34 1 100 100 Calm 30.15 1021 10 16 0.00 0.00
4:53 am 04:53 Partly Cloudy 34 1.1 33 0.6 97 97 ESE 7 11 30.12 1020 8 13 0.00 0.00
5:01 am 05:01 Mostly Cloudy 34 1.1 34 1.1 100 100 ESE 6 9 30.12 1020 8 13 0.00 0.00
5:11 am 05:11 Partly Cloudy 33 0.6 33 0.6 100 100 ESE 5 7 30.15 1021 9 14 0.00 0.00
5:53 am 05:53 Clear 32 0 31 -0.6 96 96 VRB 3 6 30.12 1020 10 16 0.00 0.00
6:53 am 06:53 Sunny 29 -1.7 28 -2.2 96 96 ENE 6 9 30.13 1020 10 16 0.00 0.00
7:01 am 07:01 Mostly Cloudy with Freezing Fog 29 -1.7 28 -2.2 96 96 NE 7 11 30.15 1021 1 1 0.00 0.00
7:09 am 07:09 Mostly Cloudy with Freezing Fog 29 -1.7 29 -1.7 100 100 Calm 30.15 1021 0 0 0.00 0.00
7:18 am 07:18 Partly Cloudy with Mist and Fog 30 -1 30 -1 100 100 E 3 6 30.15 1021 3 5 0.00 0.00
7:53 am 07:53 Sunny 31 -0.6 30 -1.1 96 96 E 5 7 30.12 1020 10 16 0.00 0.00
8:53 am 08:53 Sunny 38 3.3 33 0.6 83 83 E 7 11 30.11 1020 10 16 0.00 0.00
9:53 am 09:53 Sunny 44 6.7 35 1.7 71 71 E 6 9 30.08 1019 10 16 0.00 0.00
10:53 am 10:53 Sunny 47 8.3 33 0.6 59 59 ENE 5 7 30.06 1018 10 16 0.00 0.00
11:53 am 11:53 Sunny 50 10 25 -3.9 38 38 SW 3 6 30.04 1017 10 16 0.00 0.00
12:53 pm 12:53 Mostly Sunny 52 11.1 26 -3.3 37 37 S 6 9 30.01 1016 10 16 0.00 0.00
1:53 pm 13:53 Sunny 54 12.2 23 -5 30 30 SW 12 19 29.98 1015 10 16 0.00 0.00
2:53 pm 14:53 Sunny 54 12.2 26 -3.3 34 34 SSW 15 24 29.96 1015 10 16 0.00 0.00
3:53 pm 15:53 Mostly Sunny 54 12.2 28 -2.2 37 37 WSW 17 28 29.95 1014 10 16 0.00 0.00
4:53 pm 16:53 Sunny 55 12.8 28 -2.2 35 35 SSW 18 30 29.93 1014 10 16 0.00 0.00
5:53 pm 17:53 Mostly Cloudy 52 11.1 29 -1.7 41 41 SSW 23 37 29.94 1014 10 16 0.00 0.00
6:53 pm 18:53 Partly Cloudy 52 11.1 28 -2.2 40 40 WSW 18 30 29.95 1014 10 16 0.00 0.00
7:53 pm 19:53 Cloudy 48 8.9 33 0.6 56 56 WSW 6 9 29.97 1015 10 16 0.00 0.00
8:53 pm 20:53 Cloudy 45 7.2 33 0.6 63 63 S 8 13 29.98 1015 10 16 0.00 0.00
9:53 pm 21:53 Cloudy 47 8.3 27 -2.8 46 46 W 10 17 29.98 1015 10 16 0.00 0.03
10:53 pm 22:53 Cloudy 45 7.2 27 -2.8 49 49 SW 21 33 30.01 1016 10 16 0.00 0.00
11:53 pm 23:53 Cloudy 44 6.7 25 -3.9 47 47 SW 15 24 30.02 1017 10 16 0.00 0.00

Powered by AerisWeather